Time,TemperatureF,DewpointF,PressureIn,WindDirection,WindDirectionDegrees,WindSpeedMPH,WindSpeedGustMPH,Humidity,HourlyPrecipIn,Conditions,Clouds,dailyrainin,SoftwareType,DateUTC
2013-11-23 00:12:00,38.0,34.0,30.49,North,350,0.0,6.0,86,0.00,,,0.06,,2013-11-23 06:12:00,
2013-11-23 00:22:00,38.0,34.0,30.49,North,5,0.0,5.0,86,0.00,,,0.05,,2013-11-23 06:22:00,
2013-11-23 00:42:00,37.0,34.0,30.50,NNW,341,0.0,1.0,87,0.00,,,0.05,,2013-11-23 06:42:00,
2013-11-23 00:52:00,37.0,34.0,30.50,NNE,24,2.0,8.0,87,0.00,,,0.05,,2013-11-23 06:52:00,
2013-11-23 01:11:00,37.0,34.0,30.50,NNE,17,5.0,9.0,87,0.00,,,0.05,,2013-11-23 07:11:00,
2013-11-23 01:21:00,37.0,34.0,30.50,NE,40,0.0,1.0,87,0.00,,,0.03,,2013-11-23 07:21:00,
2013-11-23 01:42:00,36.0,32.0,30.51,North,5,0.0,0.0,86,0.00,,,0.03,,2013-11-23 07:42:00,
2013-11-23 01:52:00,36.0,33.0,30.51,North,9,0.0,0.0,87,0.00,,,0.03,,2013-11-23 07:52:00,
2013-11-23 02:21:00,35.0,31.0,30.51,North,5,0.0,2.0,86,0.00,,,0.02,,2013-11-23 08:21:00,
2013-11-23 02:42:00,35.0,31.0,30.51,North,360,0.0,0.0,86,0.00,,,0.02,,2013-11-23 08:42:00,
2013-11-23 02:52:00,35.0,32.0,30.51,North,351,0.0,0.0,87,0.00,,,0.02,,2013-11-23 08:52:00,
2013-11-23 03:11:00,35.0,32.0,30.52,NNW,345,0.0,0.0,87,0.00,,,0.02,,2013-11-23 09:11:00,
2013-11-23 03:22:00,34.0,31.0,30.51,NNE,15,0.0,5.0,87,0.00,,,0.02,,2013-11-23 09:22:00,
2013-11-23 03:43:00,34.0,30.0,30.52,North,349,0.0,0.0,86,0.00,,,0.02,,2013-11-23 09:43:00,
2013-11-23 03:54:00,33.0,30.0,30.52,NNW,342,0.0,3.0,87,0.00,,,0.02,,2013-11-23 09:54:00,
2013-11-23 04:12:00,33.0,30.0,30.52,North,355,0.0,0.0,89,0.00,,,0.02,,2013-11-23 10:12:00,
2013-11-23 04:23:00,33.0,31.0,30.53,NNW,335,4.0,7.0,91,0.00,,,0.01,,2013-11-23 10:23:00,
2013-11-23 04:42:00,32.0,30.0,30.53,NNW,327,2.0,5.0,91,0.00,,,0.01,,2013-11-23 10:42:00,
2013-11-23 04:52:00,32.0,30.0,30.53,North,360,1.0,6.0,91,0.00,,,0.01,,2013-11-23 10:52:00,
2013-11-23 05:22:00,32.0,30.0,30.55,NNW,329,0.0,1.0,91,0.00,,,0.01,,2013-11-23 11:22:00,
2013-11-23 05:42:00,32.0,30.0,30.55,NW,325,0.0,8.0,91,0.00,,,0.01,,2013-11-23 11:42:00,
2013-11-23 05:52:00,32.0,30.0,30.54,NNW,335,1.0,6.0,91,0.00,,,0.01,,2013-11-23 11:52:00,
2013-11-23 06:12:00,32.0,29.0,30.55,NW,308,3.0,8.0,90,0.00,,,0.01,,2013-11-23 12:12:00,
2013-11-23 06:22:00,32.0,29.0,30.55,NNW,333,0.0,5.0,90,0.00,,,0.00,,2013-11-23 12:22:00,
2013-11-23 06:42:00,31.0,28.0,30.55,NNW,340,0.0,0.0,90,0.00,,,0.00,,2013-11-23 12:42:00,
2013-11-23 06:52:00,31.0,29.0,30.55,NW,321,0.0,2.0,91,0.00,,,0.00,,2013-11-23 12:52:00,
2013-11-23 07:11:00,31.0,29.0,30.57,NNW,329,0.0,2.0,92,0.00,,,0.00,,2013-11-23 13:11:00,
2013-11-23 07:22:00,31.0,29.0,30.56,NNW,328,0.0,3.0,92,0.00,,,0.00,,2013-11-23 13:22:00,
2013-11-23 07:42:00,31.0,29.0,30.57,NW,304,3.0,7.0,93,0.00,,,0.00,,2013-11-23 13:42:00,
2013-11-23 07:52:00,31.0,29.0,30.57,NW,304,3.0,7.0,93,0.00,,,0.00,,2013-11-23 13:52:00,
2013-11-23 08:11:00,31.0,29.0,30.58,NNW,331,4.0,7.0,91,0.00,,,0.00,,2013-11-23 14:11:00,
2013-11-23 08:21:00,32.0,30.0,30.59,NNW,345,4.0,7.0,91,0.00,,,0.00,,2013-11-23 14:21:00,
2013-11-23 08:42:00,32.0,29.0,30.59,NW,312,4.0,8.0,88,0.00,,,0.00,,2013-11-23 14:42:00,
2013-11-23 08:52:00,32.0,28.0,30.59,WNW,286,4.0,10.0,85,0.00,,,0.00,,2013-11-23 14:52:00,
2013-11-23 09:11:00,32.0,27.0,30.59,NNW,329,3.0,8.0,82,0.00,,,0.00,,2013-11-23 15:11:00,
2013-11-23 09:22:00,33.0,28.0,30.58,WNW,288,3.0,7.0,80,0.00,,,0.00,,2013-11-23 15:22:00,
2013-11-23 09:33:00,33.0,28.0,30.58,WNW,288,3.0,7.0,80,0.00,,,0.00,,2013-11-23 15:33:00,
2013-11-23 09:43:00,33.0,28.0,30.58,WNW,288,3.0,7.0,80,0.00,,,0.00,,2013-11-23 15:43:00,
2013-11-23 09:54:00,34.0,25.0,30.59,NNW,328,6.0,12.0,70,0.00,,,0.00,,2013-11-23 15:54:00,
2013-11-23 10:23:00,34.0,24.0,30.58,North,351,6.0,10.0,66,0.00,,,0.00,,2013-11-23 16:23:00,
2013-11-23 10:43:00,35.0,24.0,30.59,WNW,288,5.0,10.0,65,0.00,,,0.00,,2013-11-23 16:43:00,
2013-11-23 10:53:00,36.0,23.0,30.58,NNW,329,8.0,14.0,60,0.00,,,0.00,,2013-11-23 16:53:00,
2013-11-23 11:12:00,35.0,22.0,30.58,NW,315,7.0,13.0,59,0.00,,,0.00,,2013-11-23 17:12:00,
2013-11-23 11:22:00,36.0,23.0,30.58,NNW,334,8.0,13.0,59,0.00,,,0.00,,2013-11-23 17:22:00,
2013-11-23 11:42:00,36.0,23.0,30.57,NW,315,8.0,13.0,60,0.00,,,0.00,,2013-11-23 17:42:00,
2013-11-23 11:52:00,35.0,23.0,30.57,NW,311,8.0,13.0,62,0.00,,,0.00,,2013-11-23 17:52:00,
2013-11-23 12:12:00,35.0,23.0,30.57,NW,318,8.0,14.0,62,0.00,,,0.00,,2013-11-23 18:12:00,
2013-11-23 12:22:00,35.0,24.0,30.57,NW,309,9.0,14.0,64,0.00,,,0.00,,2013-11-23 18:22:00,
2013-11-23 12:42:00,34.0,23.0,30.58,NNE,13,9.0,14.0,65,0.00,,,0.00,,2013-11-23 18:42:00,
2013-11-23 12:52:00,34.0,24.0,30.58,NW,325,11.0,14.0,66,0.00,,,0.00,,2013-11-23 18:52:00,
2013-11-23 13:22:00,33.0,23.0,30.59,North,355,11.0,16.0,67,0.00,,,0.00,,2013-11-23 19:22:00,
2013-11-23 13:42:00,33.0,24.0,30.59,NNW,335,7.0,14.0,69,0.00,,,0.00,,2013-11-23 19:42:00,
2013-11-23 13:52:00,33.0,24.0,30.59,NW,309,6.0,14.0,68,0.00,,,0.00,,2013-11-23 19:52:00,
2013-11-23 14:11:00,33.0,23.0,30.59,NNW,345,8.0,19.0,66,0.00,,,0.00,,2013-11-23 20:11:00,
2013-11-23 14:21:00,33.0,23.0,30.58,NNW,343,8.0,14.0,67,0.00,,,0.00,,2013-11-23 20:21:00,
2013-11-23 14:42:00,32.0,22.0,30.59,NNE,17,7.0,14.0,67,0.00,,,0.00,,2013-11-23 20:42:00,
2013-11-23 14:52:00,32.0,22.0,30.59,NNW,341,10.0,14.0,65,0.00,,,0.00,,2013-11-23 20:52:00,
2013-11-23 15:11:00,32.0,22.0,30.61,NNE,26,7.0,14.0,65,0.00,,,0.00,,2013-11-23 21:11:00,
2013-11-23 15:21:00,32.0,21.0,30.55,NNW,344,9.0,14.0,64,0.00,,,0.00,,2013-11-23 21:21:00,
2013-11-23 15:33:00,32.0,21.0,30.55,NNW,344,9.0,14.0,64,0.00,,,0.00,,2013-11-23 21:33:00,
2013-11-23 15:43:00,32.0,21.0,30.55,NNW,344,9.0,14.0,64,0.00,,,0.00,,2013-11-23 21:43:00,
2013-11-23 15:53:00,31.0,20.0,30.61,NW,313,9.0,17.0,64,0.00,,,0.00,,2013-11-23 21:53:00,
2013-11-23 16:13:00,30.0,20.0,30.63,NNW,338,7.0,13.0,66,0.00,,,0.00,,2013-11-23 22:13:00,
2013-11-23 16:23:00,30.0,20.0,30.63,NW,316,8.0,13.0,66,0.00,,,0.00,,2013-11-23 22:23:00,
2013-11-23 16:43:00,29.0,19.0,30.64,NW,318,4.0,13.0,67,0.00,,,0.00,,2013-11-23 22:43:00,
2013-11-23 16:52:00,29.0,19.0,30.65,North,11,5.0,13.0,67,0.00,,,0.00,,2013-11-23 22:52:00,
2013-11-23 17:12:00,29.0,19.0,30.66,NNW,344,7.0,18.0,65,0.00,,,0.00,,2013-11-23 23:12:00,
2013-11-23 17:21:00,28.0,18.0,30.66,NNE,21,7.0,16.0,67,0.00,,,0.00,,2013-11-23 23:21:00,
2013-11-23 17:42:00,28.0,18.0,30.66,NNW,337,7.0,14.0,67,0.00,,,0.00,,2013-11-23 23:42:00,
2013-11-23 17:53:00,27.0,18.0,30.67,NNW,338,11.0,14.0,67,0.00,,,0.00,,2013-11-23 23:53:00,
2013-11-23 18:11:00,27.0,18.0,30.68,North,360,8.0,14.0,68,0.00,,,0.00,,2013-11-24 00:11:00,
2013-11-23 18:21:00,26.0,17.0,30.68,North,360,7.0,14.0,67,0.00,,,0.00,,2013-11-24 00:21:00,
2013-11-23 18:42:00,27.0,18.0,30.68,North,9,7.0,11.0,69,0.00,,,0.00,,2013-11-24 00:42:00,
2013-11-23 18:52:00,27.0,18.0,30.68,NNE,25,5.0,14.0,68,0.00,,,0.00,,2013-11-24 00:52:00,
2013-11-23 19:11:00,26.0,17.0,30.69,NNE,17,7.0,14.0,68,0.00,,,0.00,,2013-11-24 01:11:00,
2013-11-23 19:22:00,25.0,16.0,30.70,North,349,8.0,13.0,67,0.00,,,0.00,,2013-11-24 01:22:00,
2013-11-23 19:42:00,25.0,16.0,30.70,NNE,24,5.0,13.0,69,0.00,,,0.00,,2013-11-24 01:42:00,
2013-11-23 19:52:00,24.0,16.0,30.70,NNW,329,6.0,12.0,70,0.00,,,0.00,,2013-11-24 01:52:00,
2013-11-23 20:12:00,24.0,15.0,30.71,North,360,7.0,14.0,69,0.00,,,0.00,,2013-11-24 02:12:00,
2013-11-23 20:22:00,24.0,15.0,30.71,NW,317,7.0,15.0,68,0.00,,,0.00,,2013-11-24 02:22:00,
2013-11-23 20:42:00,24.0,15.0,30.72,North,355,7.0,15.0,67,0.00,,,0.00,,2013-11-24 02:42:00,
2013-11-23 20:52:00,23.0,14.0,30.72,North,355,6.0,13.0,68,0.00,,,0.00,,2013-11-24 02:52:00,
2013-11-23 21:11:00,23.0,14.0,30.72,North,11,7.0,13.0,68,0.00,,,0.00,,2013-11-24 03:11:00,
2013-11-23 21:22:00,23.0,14.0,30.73,NNW,336,2.0,11.0,67,0.00,,,0.00,,2013-11-24 03:22:00,
2013-11-23 21:43:00,23.0,14.0,30.73,North,355,4.0,12.0,67,0.00,,,0.00,,2013-11-24 03:43:00,
2013-11-23 21:53:00,23.0,14.0,30.73,NNE,16,7.0,12.0,68,0.00,,,0.00,,2013-11-24 03:53:00,
2013-11-23 22:02:00,-999.0,-99.9,30.73,North,350,5.0,11.0,-999,0.00,,,0.00,,2013-11-24 04:02:00,
2013-11-23 22:23:00,23.0,14.0,30.73,NNE,24,6.0,11.0,69,0.00,,,0.00,,2013-11-24 04:23:00,
2013-11-23 22:42:00,23.0,15.0,30.73,North,355,4.0,11.0,70,0.00,,,0.00,,2013-11-24 04:42:00,
2013-11-23 22:53:00,23.0,14.0,30.73,NNE,22,5.0,10.0,68,0.00,,,0.00,,2013-11-24 04:53:00,
2013-11-23 23:12:00,22.0,13.0,30.74,North,355,0.0,6.0,67,0.00,,,0.00,,2013-11-24 05:12:00,
2013-11-23 23:22:00,22.0,13.0,30.74,North,5,0.0,1.0,69,0.00,,,0.00,,2013-11-24 05:22:00,
2013-11-23 23:43:00,21.0,13.0,30.74,NNE,22,0.0,3.0,70,0.00,,,0.00,,2013-11-24 05:43:00,
2013-11-23 23:53:00,21.0,13.0,30.75,North,360,0.0,6.0,70,0.00,,,0.00,,2013-11-24 05:53:00,